Regional Weather Roundup
Issued by NWS Bismarck, ND

Home | Current Version | Previous Version | Text Only | Print | Product List | Glossary On
Versions: 1 2 3 4 5 6 7 8 9 10 11 12 13 14 15 16 17 18 19 20 21 22 23 24 25 26 27 28 29 30 31 32 33 34 35 36 37 38 39 40 41 42 43 44 45 46 47 48 49 50
000
ASUS43 KBIS 301720
RWRBIS

NWR BROADCAST TEXT
NATIONAL WEATHER SERVICE BISMARCK ND
1200 PM CDT THU OCT 30 2014

NOTE: "FAIR" INDICATES FEW OR NO CLOUDS BELOW 12,000 FEET WITH NO
SIGNIFICANT WEATHER AND/OR OBSTRUCTIONS TO VISIBILITY.


CITY           SKY/WX    TMP DP  RH WIND       PRES   REMARKS
WILLISTON      CLOUDY    37  33  85 N8        30.42R FOG
MINOT          CLOUDY    34  27  75 N15       30.40R
MINOT AFB      LGT RAIN  34  29  83 N14       30.41R
BISMARCK       CLOUDY    35  31  85 N9        30.38R
DICKINSON      CLOUDY    37  32  82 N7        30.36R
GARRISON         N/A     34  30  85 N10       30.37R
HETTINGER ARPT CLOUDY    37  31  78 N9        30.36R
JAMESTOWN      CLOUDY    36  31  82 N20G25    30.29R
BEACH            N/A     34  32  93 NE8       30.39R
CARRINGTON     CLOUDY    34  32  93 N22       30.35R
CROSBY         CLOUDY    34  34 100 N10       30.43R
HARVEY         CLOUDY    32  28  86 N18G25    30.38R
HAZEN          CLOUDY    36  32  87 N13       30.41R
LINTON         CLOUDY    34  32  93 N16       30.35R
MANDAN         CLOUDY    32  32 100 N12       30.37R
OAKES            N/A     39  36  87 N21G29    30.27R
RUGBY          FAIR      32  27  80 N14G21    30.39R
STANLEY        CLOUDY    32  32 100 NE8       30.39R
TIOGA          CLOUDY    34  34 100 NE8       30.43R FOG
$$

CITY           SKY/WX    TMP DP  RH WIND       PRES   REMARKS
GRAND FORKS    CLOUDY    37  28  70 N23G31    30.31R
GRAND FORKS AF CLOUDY    37  30  77 N18G28    30.31R
DEVILS LAKE    CLOUDY    32  19  59 N21       30.35R WCI  20
FARGO          CLOUDY    41  34  76 N20       30.26R
CANDO          FAIR      34  19  55 N23G32    30.39R
CAVALIER       CLOUDY    36  25  64 N21G28    30.35R
GRAFTON        CLOUDY    36  25  64 N23G31    30.33R
GWINNER        PTSUNNY   41  34  75 N22G30    30.27R
LANGDON        CLOUDY    32  23  69 N23       30.35R WCI  19
ROLLA          CLOUDY    30  19  64 N25G33    30.38R WCI  16
WALHALLA         N/A     32  27  80 N18       30.36R
$$

CITY           SKY/WX    TMP DP  RH WIND       PRES   REMARKS
ABERDEEN       CLOUDY    41  33  73 N21G29    30.26R
MOBRIDGE       PTSUNNY   42  32  67 N20       30.30R
BUFFALO          N/A     36  32  85 N8        30.29R
RAPID CITY     SUNNY     51  34  52 N16G23    30.31R
GLASGOW        CLOUDY    37  31  78 E9        30.38S
SIDNEY         CLOUDY    36  32  87 NW6       30.44R
WOLF POINT     CLOUDY    37  31  78 E5        30.42R
GLENDIVE       CLOUDY    37  32  81 NE8       30.40R
MILES CITY     SUNNY     40  34  79 NE10      30.36R
BAKER          CLOUDY    35  31  85 NW3       30.37R
$$

CITY           SKY/WX    TMP DP  RH WIND       PRES   REMARKS
BILLINGS       MOSUNNY   46  28  49 SW9       30.32F
GREAT FALLS    MOSUNNY   49  34  56 E3        30.25S
REGINA         CLOUDY    30  27  86 NE13      30.46R
ESTEVAN        CLOUDY    34  27  75 NE10      30.43R
$$




USA.gov is the U.S. government's official web portal to all federal, state and local government web resources and services.